Home   Weather   Al Ain   Past weeks

Flag for United Arab Emirates Past Weather in Al Ain, Abu Dhabi, United Arab Emirates — Yesterday and Last 2 Weeks

95 °F


Feels Like: 92 °F
Forecast: 72 / 92 °F
Wind: 13 mph from Southwest

Location: Al Ain International Airport

Current Time: Oct 22, 2016 at 3:57:45 PM

Latest Report: Oct 22, 2016 at 3:00 PM

Visibility: 10 mi

Pressure: 29.86 "Hg

Humidity: 22%

Dew Point: 50 °F

Location of Al AinLocation

Past Weather in Al Ain — Graph


Al Ain Temperature Yesterday

Maximum temperature yesterday: 93 °F (at 2:00 PM)
Minimum temperature yesterday: 72 °F (at 5:00 AM)
Average temperature yesterday: 83 °F

High & Low Weather Summary for the Past Weeks

High102 °F (Oct 8, 4:00 PM)100% (Oct 13, 5:00 AM)29.98 "Hg (Oct 13, 5:00 AM)
Low72 °F (Oct 21, 5:00 AM)8% (Oct 11, 1:00 PM)29.77 "Hg (Oct 7, 3:00 PM)
Average86 °F46%29.88 "Hg
* Reported Oct 7 2:00 PM — Oct 22 2:00 PM, Al Ain, Weather by CustomWeather, © 2016

Note: Actual official high and low records may vary slightly from our data, if they occured in-between our weather recording intervals... More about our weather records


Al Ain Weather History for the Previous 24 Hours

Scroll right to see more
Time TempWeatherWind HumidityBarometerVisibility
2:00 PM
Sat, Oct 22
95 °FSunny.14 mph22%29.89 "Hg10 mi
1:00 PM95 °FPassing clouds.12 mph22%29.92 "HgN/A
12:00 PM91 °FPassing clouds.10 mph28%29.92 "HgN/A
11:00 AM90 °FSunny.9 mph36%29.95 "Hg10 mi
10:00 AM86 °FClear.7 mph49%29.95 "Hg5 mi
9:00 AM82 °FClear.3 mph55%29.95 "Hg4 mi
8:00 AM79 °FHaze.2 mph61%29.95 "Hg2 mi
7:00 AM73 °FHaze.3 mph74%29.92 "Hg1 mi
6:00 AM73 °FHaze.3 mph74%29.89 "Hg2 mi
5:00 AM77 °FHaze.5 mph69%29.89 "Hg3 mi
4:00 AM75 °FHaze.2 mph74%29.89 "Hg3 mi
3:00 AM77 °FHaze.6 mph69%29.86 "Hg3 mi
2:00 AM77 °FHaze.5 mph74%29.86 "Hg3 mi
1:00 AM77 °FClear.5 mph74%29.89 "Hg4 mi
12:00 AM77 °FClear.5 mph74%29.89 "Hg4 mi
11:00 PM
Fri, Oct 21
79 °FClear.5 mph70%29.89 "Hg4 mi
10:00 PM81 °FClear.7 mph70%29.89 "Hg4 mi
9:00 PM82 °FClear.6 mph55%29.89 "Hg6 mi
8:00 PM86 °FClear.7 mph38%29.86 "Hg10 mi
7:00 PM88 °FClear.7 mph33%29.86 "Hg10 mi
6:00 PM91 °FClear.8 mph26%29.83 "Hg10 mi
5:00 PM93 °FSunny.13 mph23%29.83 "Hg10 mi
4:00 PM93 °FPassing clouds.12 mph23%29.83 "HgN/A
3:00 PM93 °FPassing clouds.7 mph23%29.83 "HgN/A
Weather by CustomWeather, © 2016

See weather overviewHow to use our weather pages